Weather Roundup
Issued by NWS

Home | Current Version | Previous Version | Graphics & Text | Print | Product List | Glossary Off
Versions: 1 2 3 4 5 6 7 8 9 10 11 12 13 14 15 16 17 18 19 20 21 22 23 24 25 26 27 28 29 30 31 32 33 34 35 36 37 38 39 40 41 42 43 44 45 46 47 48 49 50

000
NZUS93 KARX 040610
HRRWXR

CURRENT HOURLY OBSERVATIONS ACROSS
MUCH OF THE UPPER MISSISSIPPI VALLEY
NATIONAL WEATHER SERVICE LA CROSSE WI
100 AM CDT FRI SEP 04 2015


...SOUTHEAST MINNESOTA...


CITY           SKY/WX    TMP DP  RH WIND       PRES   REMARKS
ROCHESTER      CLEAR     74  72  93 SE7       29.95R FOG
ROCHESTER/MAYO FAIR      74  74 100 E9        29.94S
WINONA         CLEAR     73  68  83 SE8       29.94S
AUSTIN         PTCLDY    73  72  94 CALM      29.93R
ALBERT LEA     CLEAR     75  72  88 SE6       29.92R
DODGE CENTER   CLEAR     73  72  94 SE7       29.94R FOG
PRESTON        CLEAR     74  72  92 E6        29.95S
OWATONNA       CLEAR     75  72  88 SE7       29.91S
FARIBAULT      CLEAR     75  73  94 E7        29.91S
$$

...ELSEWHERE IN MINNESOTA...


CITY           SKY/WX    TMP DP  RH WIND       PRES   REMARKS
MINNEAPOLIS    CLEAR     73  69  87 E13       29.91S
INTNL FALLS    CLEAR     61  55  81 SE5       29.94R
DULUTH         CLEAR     58  53  84 E9        29.99S
RED WING       CLEAR     73  68  83 E7        29.92S
REDWOOD FALLS  CLEAR     76  73  91 SE10      29.84F
MANKATO        CLEAR     75  73  94 SE8       29.89R
WORTHINGTON    PTCLDY    73  68  83 SE8       29.86S
FAIRMONT       PTCLDY    75  66  73 SE8       29.88S
$$

...SOUTHWEST WISCONSIN...


CITY           SKY/WX    TMP DP  RH WIND       PRES   REMARKS
LA CROSSE      CLEAR     73  67  81 SE6       29.95R
PRAIRIE DU CHI PTCLDY    75  71  87 E6        29.93S
BOSCOBEL       CLEAR     73  68  84 CALM      29.96R
LONE ROCK      CLEAR     70  66  87 E3        29.97S
PLATTEVILLE    CLEAR     71  70  96 E8        29.96S
FORT MC COY    CLEAR     68  64  88 CALM      29.98R
CAMP DOUGLAS   CLOUDY    67  67 100 SE1       29.98S
VIROQUA          N/A     68  68 100 SE7       29.98R
WIS DELLS      CLOUDY    69  65  87 E5        29.98S
$$

...ELSEWHERE IN WISCONSIN...


CITY           SKY/WX    TMP DP  RH WIND       PRES   REMARKS
MILWAUKEE      PTCLDY    66  63  90 CALM      29.97S
MADISON        CLOUDY    71  66  84 CALM      29.97S
GREEN BAY      CLEAR     64  62  93 N8        29.99R
EAU CLAIRE     PTCLDY    70  64  81 E6        29.96S
BLACK RVR FLS  CLOUDY    69  64  84 E3        29.97S
MEDFORD        FOG       59  59 100 E6        30.03R VSB 1/4
WAUSAU         CLEAR     65  62  90 E5        30.01R
WIS RAPIDS     MOCLDY    66  62  87 E5        30.01R
MARSHFIELD     PTCLDY    65  61  87 E6        30.00S
RICE LAKE      MOCLDY    64  61  90 CALM      30.00R
$$

...NORTHEAST IOWA...


CITY           SKY/WX    TMP DP  RH WIND       PRES   REMARKS
DECORAH        PTCLDY    75  73  94 VRB5      29.94S
MASON CITY     MOCLDY    72  71  97 SE6       29.93R
CHARLES CITY   PTCLDY    73  73 100 SE5       29.94R
OELWEIN          N/A     72  72 100 SE5       29.94S
$$

...ELSEWHERE IN IOWA...


CITY           SKY/WX    TMP DP  RH WIND       PRES   REMARKS
DES MOINES     PTCLDY    78  68  71 SE7       29.92R
IOWA CITY      PTCLDY    73  71  93 CALM      29.94R
FORT DODGE     CLEAR     75  68  78 SE7       29.91R
$$

...NORTHERN ILLINOIS...


CITY           SKY/WX    TMP DP  RH WIND       PRES   REMARKS
CHICAGO-OHARE  PTCLDY    71  67  87 NE8       29.97R
CHICAGO-MIDWAY PTCLDY    74  67  78 E9        29.97R
MOLINE         CLEAR     75  69  81 CALM      29.93R
ROCKFORD       CLEAR     71  66  84 E6        29.98R
PEORIA         CLEAR     78  67  68 CALM      29.95R
$$

NOTE: "FAIR" INDICATES FEW OR NO CLOUDS BELOW 12,000 FEET WITH NO
SIGNIFICANT WEATHER AND/OR OBSTRUCTIONS TO VISIBILITY. WIND
SPEEDS ARE IN MILES-PER-HOUR.



USA.gov is the U.S. government's official web portal to all federal, state and local government web resources and services.